RYR4956 GMME-LEVC

Flight info

Callsign RYR4956
Flight time 1h 13m
Altitude 38000
Route TOLSI UG5 ROMSO UM985 BARPA M985 ASTRO
Aircraft B738/M-SDE2E3FGHIRWXY/LB1

Departure

Time 2026-05-05 16:57
Airport Rabat-Salé Airport (GMME)

Arrival

Time 2026-05-05 18:11
Airport Valencia Airport (LEVC)
Time Latitude Longitude Altitude Speed Heading
2026-05-05 16:23 34.03736 -6.74817 321 ft 0 kts 159°
2026-05-05 16:49 34.03744 -6.74820 320 ft 2 kts 159°
2026-05-05 16:49 34.03754 -6.74825 320 ft 2 kts 159°
2026-05-05 16:49 34.03772 -6.74833 319 ft 2 kts 159°
2026-05-05 16:49 34.03786 -6.74840 318 ft 2 kts 159°
2026-05-05 16:50 34.03800 -6.74846 317 ft 2 kts 162°
2026-05-05 16:50 34.03815 -6.74845 317 ft 2 kts 212°
2026-05-05 16:50 34.03825 -6.74831 317 ft 2 kts 252°
2026-05-05 16:50 34.03826 -6.74816 317 ft 0 kts 269°
2026-05-05 16:51 34.03826 -6.74813 317 ft 0 kts 266°
2026-05-05 16:53 34.03822 -6.74851 316 ft 9 kts 261°
2026-05-05 16:53 34.03811 -6.74961 313 ft 15 kts 264°
2026-05-05 16:54 34.03769 -6.75041 311 ft 9 kts 207°
2026-05-05 16:54 34.03715 -6.75096 312 ft 11 kts 249°
2026-05-05 16:54 34.03713 -6.75204 309 ft 14 kts 296°
2026-05-05 16:54 34.03753 -6.75282 303 ft 18 kts 301°
2026-05-05 16:55 34.03855 -6.75485 291 ft 23 kts 300°
2026-05-05 16:55 34.03910 -6.75592 287 ft 17 kts 302°
2026-05-05 16:55 34.03990 -6.75749 283 ft 7 kts 301°
2026-05-05 16:55 34.04022 -6.75811 280 ft 9 kts 303°
2026-05-05 16:56 34.04059 -6.75889 279 ft 8 kts 300°
2026-05-05 16:56 34.04108 -6.75910 277 ft 9 kts 27°
2026-05-05 16:56 34.04218 -6.75828 273 ft 41 kts 31°
2026-05-05 16:56 34.04664 -6.75502 265 ft 105 kts 31°
2026-05-05 16:57 34.05448 -6.74929 260 ft 155 kts 31°
2026-05-05 16:57 34.06434 -6.74205 624 ft 166 kts 29°
2026-05-05 16:57 34.07420 -6.73477 1210 ft 169 kts 30°
2026-05-05 16:57 34.08432 -6.72732 1730 ft 175 kts 30°
2026-05-05 16:58 34.09513 -6.71942 2061 ft 191 kts 30°
2026-05-05 16:58 34.10688 -6.71082 2450 ft 204 kts 30°
2026-05-05 16:58 34.11520 -6.70496 2678 ft 214 kts 24°
2026-05-05 16:58 34.13526 -6.70208 3324 ft 224 kts 342°
2026-05-05 16:59 34.14847 -6.71152 3977 ft 224 kts 315°
2026-05-05 16:59 34.15912 -6.72532 4547 ft 229 kts 311°
2026-05-05 16:59 34.17009 -6.74012 4941 ft 243 kts 312°
2026-05-05 16:59 34.18194 -6.75550 5322 ft 257 kts 313°
2026-05-05 17:00 34.19026 -6.76608 5642 ft 263 kts 313°
2026-05-05 17:00 34.20741 -6.78774 6406 ft 271 kts 313°
2026-05-05 17:00 34.21608 -6.79869 6806 ft 274 kts 313°
2026-05-05 17:00 34.23376 -6.82109 7640 ft 279 kts 313°
2026-05-05 17:01 34.24731 -6.83787 8274 ft 282 kts 316°
2026-05-05 17:01 34.26344 -6.85197 8912 ft 287 kts 332°
2026-05-05 17:01 34.28173 -6.86149 9553 ft 291 kts 338°
2026-05-05 17:01 34.30090 -6.86985 10203 ft 295 kts 339°
2026-05-05 17:02 34.32030 -6.87839 10866 ft 298 kts 338°
2026-05-05 17:02 34.33962 -6.88729 11520 ft 301 kts 336°
2026-05-05 17:02 34.35918 -6.89663 12175 ft 304 kts 336°
2026-05-05 17:02 34.37227 -6.90299 12611 ft 306 kts 335°
2026-05-05 17:03 34.39889 -6.91602 13503 ft 310 kts 335°
2026-05-05 17:03 34.41888 -6.92583 14171 ft 313 kts 335°
2026-05-05 17:03 34.43241 -6.93246 14620 ft 315 kts 334°
2026-05-05 17:03 34.45980 -6.94589 15524 ft 319 kts 334°
2026-05-05 17:04 34.48029 -6.95593 16172 ft 322 kts 334°
2026-05-05 17:04 34.50135 -6.96625 16818 ft 325 kts 334°
2026-05-05 17:04 34.52220 -6.97647 17442 ft 328 kts 333°
2026-05-05 17:04 34.53629 -6.98338 17857 ft 330 kts 333°
2026-05-05 17:05 34.56509 -6.99741 18669 ft 335 kts 335°
2026-05-05 17:05 34.58738 -7.00526 19236 ft 343 kts 346°
2026-05-05 17:05 34.61169 -7.00738 19788 ft 353 kts 358°
2026-05-05 17:05 34.63674 -7.00352 20058 ft 373 kts
2026-05-05 17:06 34.66183 -6.99343 20297 ft 392 kts 20°
2026-05-05 17:06 34.68674 -6.97750 20524 ft 409 kts 28°
2026-05-05 17:06 34.71124 -6.95922 20743 ft 423 kts 29°
2026-05-05 17:06 34.73645 -6.94028 21152 ft 430 kts 28°
2026-05-05 17:07 34.76240 -6.92158 21606 ft 434 kts 27°
2026-05-05 17:07 34.78879 -6.90337 22068 ft 438 kts 26°
2026-05-05 17:07 34.80666 -6.89142 22373 ft 440 kts 25°
2026-05-05 17:07 34.84274 -6.86792 22975 ft 444 kts 24°
2026-05-05 17:08 34.86109 -6.85622 23292 ft 446 kts 24°
2026-05-05 17:08 34.89412 -6.83544 23848 ft 450 kts 24°
2026-05-05 17:08 34.91259 -6.82392 24154 ft 452 kts 24°
2026-05-05 17:08 34.95038 -6.80046 24770 ft 457 kts 23°
2026-05-05 17:09 34.97863 -6.78299 25236 ft 460 kts 23°
2026-05-05 17:09 35.00752 -6.76513 25704 ft 464 kts 23°
2026-05-05 17:09 35.02649 -6.75341 26006 ft 466 kts 23°
2026-05-05 17:09 35.06543 -6.72933 26613 ft 470 kts 22°
2026-05-05 17:10 35.09471 -6.71122 27051 ft 474 kts 22°
2026-05-05 17:10 35.12443 -6.69281 27481 ft 477 kts 22°
2026-05-05 17:10 35.14413 -6.68059 27762 ft 479 kts 22°
2026-05-05 17:10 35.18423 -6.65571 28323 ft 483 kts 22°
2026-05-05 17:11 35.21413 -6.63713 28731 ft 486 kts 22°
2026-05-05 17:11 35.23462 -6.62438 29005 ft 488 kts 22°
2026-05-05 17:11 35.27478 -6.59938 29729 ft 487 kts 22°
2026-05-05 17:11 35.30476 -6.58066 30311 ft 485 kts 22°
2026-05-05 17:12 35.32489 -6.56808 30682 ft 484 kts 22°
2026-05-05 17:12 35.36465 -6.54324 31397 ft 482 kts 22°
2026-05-05 17:12 35.38459 -6.53077 31751 ft 481 kts 22°
2026-05-05 17:12 35.41410 -6.51101 32254 ft 483 kts 27°
2026-05-05 17:13 35.44194 -6.48800 32752 ft 485 kts 33°
2026-05-05 17:13 35.46785 -6.46159 33232 ft 487 kts 39°
2026-05-05 17:13 35.49160 -6.43194 33706 ft 488 kts 46°
2026-05-05 17:13 35.51952 -6.38769 34362 ft 489 kts 54°
2026-05-05 17:14 35.53686 -6.35237 34794 ft 489 kts 60°
2026-05-05 17:14 35.54746 -6.32736 35082 ft 488 kts 63°
2026-05-05 17:14 35.56251 -6.29042 35486 ft 487 kts 62°
2026-05-05 17:14 35.58402 -6.24148 36030 ft 486 kts 60°
2026-05-05 17:15 35.60070 -6.20540 36345 ft 485 kts 59°
2026-05-05 17:15 35.61188 -6.18162 36551 ft 485 kts 59°
2026-05-05 17:15 35.62867 -6.14611 36841 ft 484 kts 59°
2026-05-05 17:15 35.65115 -6.09850 37212 ft 484 kts 59°
2026-05-05 17:16 35.66241 -6.07453 37383 ft 484 kts 59°
2026-05-05 17:16 35.67936 -6.03829 37639 ft 484 kts 59°
2026-05-05 17:16 35.69606 -6.00235 37885 ft 484 kts 59°
2026-05-05 17:16 35.71265 -5.96653 38050 ft 485 kts 59°
2026-05-05 17:17 35.75074 -5.88213 38054 ft 483 kts 62°
2026-05-05 17:17 35.78023 -5.80809 38055 ft 483 kts 64°
2026-05-05 17:18 35.80407 -5.74557 38010 ft 482 kts 64°
2026-05-05 17:18 35.83266 -5.67064 38009 ft 484 kts 64°
2026-05-05 17:19 35.86177 -5.59643 38018 ft 484 kts 62°
2026-05-05 17:19 35.89671 -5.50992 38014 ft 483 kts 62°
2026-05-05 17:20 35.92169 -5.44833 38008 ft 483 kts 62°
2026-05-05 17:20 35.95175 -5.37402 38002 ft 483 kts 62°
2026-05-05 17:21 35.98148 -5.30019 37997 ft 483 kts 63°
2026-05-05 17:22 36.02668 -5.18859 37995 ft 484 kts 62°
2026-05-05 17:22 36.05750 -5.11513 37993 ft 484 kts 61°
2026-05-05 17:23 36.08867 -5.04125 37990 ft 483 kts 61°
2026-05-05 17:23 36.11910 -4.96883 37988 ft 484 kts 61°
2026-05-05 17:24 36.15472 -4.89875 37984 ft 479 kts 45°
2026-05-05 17:24 36.17860 -4.87090 37990 ft 473 kts 33°
2026-05-05 17:24 36.20525 -4.84712 37986 ft 472 kts 29°
2026-05-05 17:25 36.26975 -4.79669 37979 ft 469 kts 26°
2026-05-05 17:25 36.31639 -4.76157 37976 ft 469 kts 26°
2026-05-05 17:26 36.37194 -4.71924 37973 ft 469 kts 27°
2026-05-05 17:26 36.42722 -4.67640 37969 ft 470 kts 27°
2026-05-05 17:27 36.48275 -4.63288 37963 ft 470 kts 27°
2026-05-05 17:27 36.53789 -4.58941 37958 ft 470 kts 27°
2026-05-05 17:28 36.59306 -4.54577 37954 ft 470 kts 27°
2026-05-05 17:28 36.64814 -4.50212 37951 ft 470 kts 27°
2026-05-05 17:29 36.70349 -4.45817 37952 ft 470 kts 27°
2026-05-05 17:29 36.75837 -4.41454 37957 ft 470 kts 27°
2026-05-05 17:30 36.81241 -4.36806 37974 ft 474 kts 34°
2026-05-05 17:30 36.86168 -4.31287 37986 ft 479 kts 41°
2026-05-05 17:31 36.90861 -4.25366 37875 ft 482 kts 42°
2026-05-05 17:31 36.95517 -4.19339 37681 ft 480 kts 43°
2026-05-05 17:31 36.98590 -4.15363 37474 ft 481 kts 42°
2026-05-05 17:32 37.00156 -4.13342 37377 ft 479 kts 42°
2026-05-05 17:32 37.02469 -4.10363 37483 ft 474 kts 42°
2026-05-05 17:32 37.04751 -4.07430 37644 ft 472 kts 42°
2026-05-05 17:32 37.07032 -4.04505 37794 ft 471 kts 42°
2026-05-05 17:33 37.09327 -4.01565 37985 ft 471 kts 41°
2026-05-05 17:33 37.13947 -3.95656 38061 ft 480 kts 41°
2026-05-05 17:34 37.18659 -3.89627 38020 ft 485 kts 42°
2026-05-05 17:34 37.23309 -3.83653 37998 ft 481 kts 42°
2026-05-05 17:35 37.27984 -3.77639 37979 ft 482 kts 42°
2026-05-05 17:35 37.32679 -3.71589 37991 ft 482 kts 41°
2026-05-05 17:36 37.37338 -3.65574 38024 ft 484 kts 41°
2026-05-05 17:36 37.42047 -3.59484 38045 ft 484 kts 41°
2026-05-05 17:37 37.46708 -3.53443 38033 ft 483 kts 41°
2026-05-05 17:37 37.51401 -3.47348 38048 ft 483 kts 41°
2026-05-05 17:38 37.56072 -3.41273 38033 ft 484 kts 41°
2026-05-05 17:38 37.60749 -3.35176 38045 ft 483 kts 41°
2026-05-05 17:39 37.65419 -3.29077 38024 ft 484 kts 42°
2026-05-05 17:39 37.70084 -3.22972 37995 ft 484 kts 42°
2026-05-05 17:40 37.74764 -3.16838 37990 ft 484 kts 42°
2026-05-05 17:40 37.79424 -3.10717 37994 ft 484 kts 42°
2026-05-05 17:41 37.84073 -3.04599 38000 ft 484 kts 43°
2026-05-05 17:41 37.88738 -2.98447 38001 ft 484 kts 43°
2026-05-05 17:42 37.93396 -2.92293 38018 ft 483 kts 43°
2026-05-05 17:42 37.98053 -2.86129 37903 ft 485 kts 43°
2026-05-05 17:42 38.00363 -2.83066 37756 ft 485 kts 43°
2026-05-05 17:43 38.02689 -2.79979 37586 ft 482 kts 43°
2026-05-05 17:43 38.04991 -2.76918 37480 ft 481 kts 43°
2026-05-05 17:43 38.07312 -2.73833 37395 ft 484 kts 43°
2026-05-05 17:44 38.11971 -2.67630 37552 ft 485 kts 43°
2026-05-05 17:44 38.16639 -2.61404 37652 ft 489 kts 43°
2026-05-05 17:45 38.21310 -2.55158 37691 ft 487 kts 43°
2026-05-05 17:45 38.25937 -2.48957 37661 ft 486 kts 43°
2026-05-05 17:45 38.28257 -2.45844 37471 ft 486 kts 43°
2026-05-05 17:46 38.30585 -2.42717 37023 ft 485 kts 43°
2026-05-05 17:46 38.32930 -2.39567 36225 ft 495 kts 43°
2026-05-05 17:46 38.35303 -2.36371 35392 ft 504 kts 44°
2026-05-05 17:46 38.37627 -2.33048 34652 ft 509 kts 47°
2026-05-05 17:47 38.39872 -2.29579 34160 ft 500 kts 49°
2026-05-05 17:47 38.42000 -2.26138 33745 ft 490 kts 50°
2026-05-05 17:47 38.44058 -2.22743 33323 ft 481 kts 50°
2026-05-05 17:47 38.46080 -2.19384 32890 ft 473 kts 50°
2026-05-05 17:48 38.48044 -2.16121 32513 ft 466 kts 50°
2026-05-05 17:48 38.50008 -2.12869 32130 ft 459 kts 50°
2026-05-05 17:48 38.51965 -2.09638 31548 ft 460 kts 50°
2026-05-05 17:48 38.53935 -2.06401 30756 ft 466 kts 50°
2026-05-05 17:49 38.55924 -2.03145 29884 ft 474 kts 50°
2026-05-05 17:49 38.57952 -1.99827 29357 ft 469 kts 49°
2026-05-05 17:49 38.59949 -1.96555 28961 ft 460 kts 49°
2026-05-05 17:49 38.61880 -1.93391 28570 ft 451 kts 49°
2026-05-05 17:50 38.63789 -1.90258 28099 ft 440 kts 49°
2026-05-05 17:50 38.65659 -1.87190 27471 ft 435 kts 49°
2026-05-05 17:50 38.67483 -1.84199 26835 ft 430 kts 49°
2026-05-05 17:50 38.69315 -1.81195 26183 ft 425 kts 49°
2026-05-05 17:51 38.71117 -1.78236 25516 ft 421 kts 49°
2026-05-05 17:51 38.72899 -1.75307 24815 ft 416 kts 49°
2026-05-05 17:51 38.74658 -1.72413 24106 ft 411 kts 49°
2026-05-05 17:51 38.76985 -1.68578 23375 ft 406 kts 49°
2026-05-05 17:52 38.78131 -1.66688 23059 ft 403 kts 49°
2026-05-05 17:52 38.79844 -1.63860 22615 ft 398 kts 49°
2026-05-05 17:52 38.81536 -1.61064 22177 ft 394 kts 49°
2026-05-05 17:52 38.83197 -1.58318 21757 ft 390 kts 49°
2026-05-05 17:53 38.84860 -1.55565 21355 ft 387 kts 49°
2026-05-05 17:53 38.86494 -1.52859 20933 ft 386 kts 49°
2026-05-05 17:53 38.88139 -1.50134 20500 ft 384 kts 49°
2026-05-05 17:53 38.89765 -1.47437 20072 ft 382 kts 49°
2026-05-05 17:54 38.91367 -1.44778 19644 ft 381 kts 49°
2026-05-05 17:54 38.92984 -1.42091 19210 ft 380 kts 49°
2026-05-05 17:54 38.94609 -1.39390 18773 ft 378 kts 49°
2026-05-05 17:54 38.96199 -1.36742 18344 ft 377 kts 49°
2026-05-05 17:55 38.97803 -1.34068 17909 ft 375 kts 50°
2026-05-05 17:55 38.99386 -1.31427 17488 ft 373 kts 50°
2026-05-05 17:55 39.00952 -1.28762 17063 ft 372 kts 53°
2026-05-05 17:55 39.02327 -1.26001 16634 ft 371 kts 60°
2026-05-05 17:56 39.03455 -1.23016 16204 ft 370 kts 67°
2026-05-05 17:56 39.04390 -1.19947 15774 ft 368 kts 70°
2026-05-05 17:56 39.05231 -1.16875 15346 ft 366 kts 72°
2026-05-05 17:56 39.06049 -1.13783 14917 ft 364 kts 72°
2026-05-05 17:57 39.06873 -1.10684 14459 ft 360 kts 71°
2026-05-05 17:57 39.07680 -1.07700 14065 ft 351 kts 71°
2026-05-05 17:57 39.08484 -1.04766 13653 ft 343 kts 71°
2026-05-05 17:57 39.09270 -1.01922 13252 ft 335 kts 70°
2026-05-05 17:58 39.10043 -0.99141 12919 ft 330 kts 70°
2026-05-05 17:58 39.10813 -0.96371 12517 ft 330 kts 70°
2026-05-05 17:58 39.11591 -0.93569 12062 ft 332 kts 70°
2026-05-05 17:58 39.12373 -0.90755 11645 ft 331 kts 70°
2026-05-05 17:59 39.13140 -0.87988 11223 ft 328 kts 70°
2026-05-05 17:59 39.13896 -0.85258 10862 ft 323 kts 70°
2026-05-05 17:59 39.14652 -0.82525 10499 ft 319 kts 70°
2026-05-05 17:59 39.15383 -0.79880 10151 ft 315 kts 70°
2026-05-05 18:00 39.16118 -0.77215 9848 ft 310 kts 70°
2026-05-05 18:00 39.16823 -0.74660 9588 ft 305 kts 70°
2026-05-05 18:00 39.17532 -0.72085 9206 ft 304 kts 70°
2026-05-05 18:00 39.18239 -0.69516 8836 ft 303 kts 70°
2026-05-05 18:01 39.18937 -0.66978 8473 ft 301 kts 70°
2026-05-05 18:01 39.19633 -0.64445 8088 ft 296 kts 70°
2026-05-05 18:01 39.20309 -0.61980 7758 ft 287 kts 70°
2026-05-05 18:01 39.20958 -0.59613 7442 ft 282 kts 70°
2026-05-05 18:02 39.21621 -0.57192 6977 ft 285 kts 70°
2026-05-05 18:02 39.22278 -0.54787 6654 ft 283 kts 70°
2026-05-05 18:02 39.22922 -0.52430 6542 ft 272 kts 70°
2026-05-05 18:02 39.23529 -0.50208 6457 ft 261 kts 70°
2026-05-05 18:03 39.24233 -0.48055 6193 ft 258 kts 58°
2026-05-05 18:03 39.25271 -0.46199 5897 ft 257 kts 50°
2026-05-05 18:03 39.26393 -0.44412 5602 ft 255 kts 51°
2026-05-05 18:03 39.27469 -0.42561 5309 ft 254 kts 54°
2026-05-05 18:04 39.28473 -0.40701 5022 ft 253 kts 55°
2026-05-05 18:04 39.29456 -0.38815 4736 ft 252 kts 55°
2026-05-05 18:04 39.30429 -0.36937 4451 ft 251 kts 55°
2026-05-05 18:04 39.31402 -0.35073 4207 ft 248 kts 53°
2026-05-05 18:05 39.32522 -0.33408 4099 ft 236 kts 38°
2026-05-05 18:05 39.33850 -0.32233 3845 ft 232 kts 28°
2026-05-05 18:05 39.35241 -0.31215 3687 ft 223 kts 27°
2026-05-05 18:05 39.36551 -0.30224 3539 ft 213 kts 29°
2026-05-05 18:06 39.37783 -0.29244 3420 ft 204 kts 30°
2026-05-05 18:06 39.38582 -0.28626 3358 ft 196 kts 25°
2026-05-05 18:06 39.40253 -0.28168 3257 ft 180 kts 342°
2026-05-05 18:06 39.41296 -0.28963 3231 ft 175 kts 310°
2026-05-05 18:07 39.42009 -0.30254 3071 ft 178 kts 299°
2026-05-05 18:07 39.42617 -0.31670 2768 ft 178 kts 296°
2026-05-05 18:07 39.43170 -0.33088 2526 ft 175 kts 295°
2026-05-05 18:07 39.43708 -0.34492 2285 ft 173 kts 295°
2026-05-05 18:08 39.44238 -0.35874 2045 ft 172 kts 295°
2026-05-05 18:08 39.44772 -0.37270 1808 ft 168 kts 295°
2026-05-05 18:08 39.45276 -0.38588 1611 ft 158 kts 295°
2026-05-05 18:08 39.45753 -0.39834 1354 ft 153 kts 295°
2026-05-05 18:09 39.46217 -0.41049 1167 ft 150 kts 295°
2026-05-05 18:09 39.46685 -0.42274 961 ft 151 kts 295°
2026-05-05 18:09 39.47145 -0.43480 765 ft 150 kts 295°
2026-05-05 18:09 39.47613 -0.44707 564 ft 151 kts 296°
2026-05-05 18:10 39.48078 -0.45925 365 ft 150 kts 296°
2026-05-05 18:10 39.48541 -0.47139 169 ft 149 kts 295°
2026-05-05 18:10 39.48920 -0.48133 201 ft 87 kts 296°
2026-05-05 18:10 39.49118 -0.48649 216 ft 51 kts 295°
2026-05-05 18:11 39.49255 -0.49012 225 ft 34 kts 296°
2026-05-05 18:11 39.49387 -0.49222 228 ft 20 kts 323°
2026-05-05 18:11 39.49486 -0.49309 228 ft 14 kts 327°
2026-05-05 18:11 39.49546 -0.49287 227 ft 10 kts 76°
2026-05-05 18:12 39.49524 -0.49187 226 ft 13 kts 116°
2026-05-05 18:12 39.49476 -0.49062 225 ft 17 kts 116°
2026-05-05 18:12 39.49417 -0.48906 223 ft 21 kts 117°
2026-05-05 18:12 39.49341 -0.48706 217 ft 27 kts 116°
2026-05-05 18:13 39.49252 -0.48472 210 ft 30 kts 116°
2026-05-05 18:13 39.49171 -0.48260 203 ft 21 kts 115°
2026-05-05 18:13 39.49101 -0.48078 196 ft 23 kts 116°
2026-05-05 18:13 39.49044 -0.47930 189 ft 14 kts 117°
2026-05-05 18:14 39.49033 -0.47811 183 ft 14 kts 76°
2026-05-05 18:14 39.49054 -0.47697 179 ft 13 kts 77°
2026-05-05 18:14 39.49038 -0.47581 175 ft 10 kts 116°
2026-05-05 18:14 39.49015 -0.47506 172 ft 5 kts 76°
2026-05-05 18:15 39.49031 -0.47483 172 ft 1 kts 40°
2026-05-05 18:15 39.49037 -0.47477 173 ft 2 kts 39°
2026-05-05 18:15 39.49056 -0.47456 174 ft 2 kts 40°
2026-05-05 18:15 39.49063 -0.47448 174 ft 1 kts 40°
2026-05-05 18:16 39.49065 -0.47446 174 ft 0 kts 40°